FW2338 Weather Reports


Display with metric or nautical units.
time (UTC)temp
F
wind
direction
speed
MPH
gust
MPH
rain 1hr
in
rain 24hr
in
rain mn
in
humidity
%
barometer
mb
20260505014315 67 90 1.0 2.0 0.00 0.00 0.00 44 1014.9
20260505013816 67 118 0.0 2.0 0.00 0.00 0.00 42 1014.9
20260505013316 68 121 0.0 2.0 0.00 0.00 0.00 41 1014.7
20260505012817 68 130 2.0 2.0 0.00 0.00 0.00 41 1014.8
20260505012317 68 127 0.0 1.0 0.00 0.00 0.00 40 1014.7
20260505011818 68 127 0.0 1.0 0.00 0.00 0.00 40 1014.6
20260505011316 69 142 0.0 1.0 0.00 0.00 0.00 40 1014.3
20260505011145 70 87 0.0 0.0 0.00 0.00 0.00 39 1014.2
20260505011141 69 87 0.0 0.0 0.00 0.00 0.00 39 1014.4
20260505005817 70 87 0.0 2.0 0.00 0.00 0.00 38 1014.3
20260505005304 70 87 0.0 2.0 0.00 0.00 0.00 38 1014.3
20260505004804 71 186 0.0 2.0 0.00 0.00 0.00 37 1014.5
20260505004304 71 213 0.0 2.0 0.00 0.00 0.00 36 1014.3
20260505003805 71 185 0.0 3.0 0.00 0.00 0.00 36 1014.3
20260505003305 72 210 0.0 3.0 0.00 0.00 0.00 37 1014.1
20260505002804 71 191 2.0 3.0 0.00 0.00 0.00 36 1014.2
20260505002304 72 224 1.0 3.0 0.00 0.00 0.00 36 1014.2
20260505001805 72 225 0.0 2.0 0.00 0.00 0.00 37 1014.1
20260505001303 72 216 0.0 2.0 0.00 0.00 0.00 37 1014.1
20260505000804 72 210 0.0 3.0 0.00 0.00 0.00 37 1014.1
20260505000309 73 195 2.0 3.0 0.00 0.00 0.00 36 1014.1
20260504235807 73 240 0.0 3.0 0.00 0.00 0.00 36 1014.0
20260504235543 73 185 0.0 6.0 0.00 0.00 0.00 36 1014.0
20260504234805 74 195 0.0 6.0 0.00 0.00 0.00 35 1013.9
20260504234304 74 230 2.0 6.0 0.00 0.00 0.00 36 1014.0
20260504233804 74 198 0.0 6.0 0.00 0.00 0.00 35 1013.9
20260504233319 74 150 0.0 6.0 0.00 0.00 0.00 35 1013.6
20260504232803 74 150 0.0 4.0 0.00 0.00 0.00 34 1013.6
20260504232304 74 236 3.0 3.0 0.00 0.00 0.00 33 1013.7
20260504231804 75 207 0.0 4.0 0.00 0.00 0.00 31 1013.3
20260504231304 75 206 2.0 6.0 0.00 0.00 0.00 31 1013.4
20260504230804 75 209 0.0 6.0 0.00 0.00 0.00 30 1013.3
20260504230305 75 221 2.0 6.0 0.00 0.00 0.00 30 1013.6
20260504225805 75 207 2.0 5.0 0.00 0.00 0.00 31 1013.6
20260504225304 76 224 5.0 6.0 0.00 0.00 0.00 32 1013.6
20260504224804 76 215 2.0 6.0 0.00 0.00 0.00 33 1013.5
20260504224304 76 210 0.0 5.0 0.00 0.00 0.00 33 1013.5
20260504223804 76 240 0.0 6.0 0.00 0.00 0.00 32 1013.6
20260504223304 76 213 3.0 8.0 0.00 0.00 0.00 30 1013.4
20260504222806 77 231 0.0 8.0 0.00 0.00 0.00 30 1013.6
20260504222305 77 240 2.0 7.0 0.00 0.00 0.00 29 1013.7
20260504222040 77 230 2.0 7.0 0.00 0.00 0.00 29 1013.6
20260504221304 78 207 2.0 6.0 0.00 0.00 0.00 29 1013.6
20260504221053 78 216 0.0 6.0 0.00 0.00 0.00 29 1013.6
20260504220305 78 186 0.0 5.0 0.00 0.00 0.00 28 1013.6
20260504215804 77 203 2.0 5.0 0.00 0.00 0.00 28 1013.7
20260504215538 77 150 0.0 5.0 0.00 0.00 0.00 27 1013.5
20260504214804 77 223 2.0 7.0 0.00 0.00 0.00 27 1013.8
20260504214304 78 240 3.0 7.0 0.00 0.00 0.00 27 1013.6
20260504213804 78 205 2.0 5.0 0.00 0.00 0.00 27 1013.6
20260504213305 78 150 0.0 5.0 0.00 0.00 0.00 28 1013.7
20260504212804 78 157 0.0 5.0 0.00 0.00 0.00 27 1013.7
20260504212540 78 195 2.0 6.0 0.00 0.00 0.00 28 1013.7
20260504211804 78 150 0.0 6.0 0.00 0.00 0.00 27 1013.8
20260504211304 78 258 6.0 6.0 0.00 0.00 0.00 28 1013.6
20260504210804 78 248 0.0 7.0 0.00 0.00 0.00 27 1013.7
20260504210556 78 235 3.0 7.0 0.00 0.00 0.00 26 1013.9
20260504205807 79 204 0.0 6.0 0.00 0.00 0.00 27 1013.7
20260504205307 78 232 3.0 8.0 0.00 0.00 0.00 26 1013.9
20260504204804 78 257 2.0 8.0 0.00 0.00 0.00 27 1014.0
20260504204304 77 136 0.0 5.0 0.00 0.00 0.00 27 1013.9
20260504203804 77 240 3.0 6.0 0.00 0.00 0.00 26 1014.0
20260504203305 77 142 0.0 7.0 0.00 0.00 0.00 26 1014.0
20260504202803 77 245 5.0 7.0 0.00 0.00 0.00 29 1014.2
20260504202305 77 221 3.0 7.0 0.00 0.00 0.00 29 1014.1
20260504201804 78 260 3.0 7.0 0.00 0.00 0.00 30 1014.4
20260504201303 77 213 3.0 6.0 0.00 0.00 0.00 29 1014.2
20260504200804 77 142 1.0 5.0 0.00 0.00 0.00 29 1014.4
20260504200305 78 257 4.0 5.0 0.00 0.00 0.00 30 1014.5
20260504195804 77 229 2.0 5.0 0.00 0.00 0.00 29 1014.6
20260504195304 77 240 1.0 4.0 0.00 0.00 0.00 29 1014.5
20260504194804 78 240 0.0 5.0 0.00 0.00 0.00 31 1014.5
20260504194536 77 142 1.0 6.0 0.00 0.00 0.00 30 1014.7
20260504193804 77 218 3.0 6.0 0.00 0.00 0.00 29 1014.5
20260504193306 77 124 2.0 4.0 0.00 0.00 0.00 30 1014.6
20260504192804 77 109 2.0 4.0 0.00 0.00 0.00 30 1014.6
20260504192304 77 195 2.0 4.0 0.00 0.00 0.00 31 1014.6
20260504191804 77 84 1.0 5.0 0.00 0.00 0.00 30 1014.7
20260504191304 78 225 2.0 5.0 0.00 0.00 0.00 31 1014.7
20260504190804 78 79 0.0 5.0 0.00 0.00 0.00 32 1014.9
20260504190308 78 179 2.0 4.0 0.00 0.00 0.00 33 1014.9
20260504190045 77 190 0.0 4.0 0.00 0.00 0.00 31 1015.1
20260504185611 78 60 0.0 6.0 0.00 0.00 0.00 29 1015.1
20260504184805 76 240 2.0 6.0 0.00 0.00 0.00 31 1015.0
20260504184304 78 41 0.0 4.0 0.00 0.00 0.00 30 1015.3
20260504183804 78 138 0.0 6.0 0.00 0.00 0.00 30 1015.2
20260504183309 77 85 2.0 6.0 0.00 0.00 0.00 32 1015.2
20260504182804 76 135 0.0 6.0 0.00 0.00 0.00 33 1015.5
20260504182304 76 215 2.0 8.0 0.00 0.00 0.00 31 1015.4
20260504181804 76 224 2.0 8.0 0.00 0.00 0.00 32 1015.3
20260504181304 76 105 2.0 6.0 0.00 0.00 0.00 32 1015.3
20260504180804 76 180 2.0 6.0 0.00 0.00 0.00 31 1015.6
20260504180545 76 146 0.0 4.0 0.00 0.00 0.00 31 1015.6
20260504175807 77 90 2.0 5.0 0.00 0.00 0.00 32 1015.7
20260504175307 75 271 2.0 5.0 0.00 0.00 0.00 32 1015.9
20260504175037 75 90 0.0 4.0 0.00 0.00 0.00 34 1015.8
20260504174536 75 358 0.0 3.0 0.00 0.00 0.00 33 1015.7
20260504174040 75 96 2.0 5.0 0.00 0.00 0.00 32 1015.8
20260504173307 75 276 2.0 5.0 0.00 0.00 0.00 31 1015.8
20260504172809 74 60 1.0 3.0 0.00 0.00 0.00 34 1016.0
20260504172304 74 272 3.0 5.0 0.00 0.00 0.00 33 1015.8
20260504171804 75 67 2.0 5.0 0.00 0.00 0.00 33 1016.0
20260504171304 74 264 2.0 4.0 0.00 0.00 0.00 34 1015.8
20260504171039 74 60 0.0 6.0 0.00 0.00 0.00 33 1015.8
20260504170319 74 52 0.0 6.0 0.00 0.00 0.00 32 1015.9
20260504160305 70 190 4.0 5.0 0.00 0.00 0.00 38 1017.1
20260504151039 67 156 2.0 4.0 0.00 0.00 0.00 50 1017.1
20260504150309 66 150 0.0 3.0 0.00 0.00 0.00 50 1017.3
20260504141302 62 156 0.0 3.0 0.00 0.00 0.00 62 1017.3
20260504140815 61 240 0.0 2.0 0.00 0.00 0.00 63 1017.4
20260504140811 62 190 0.0 3.0 0.00 0.00 0.00 62 1017.2
20260504130304 55 136 1.0 3.0 0.00 0.00 0.00 76 1017.2
20260504120253 52 150 0.0 2.0 0.00 0.00 0.00 80 1016.9
20260504110457 50 150 0.0 2.0 0.00 0.00 0.00 84 1017.0
20260504100229 51 155 0.0 2.0 0.00 0.00 0.00 81 1017.0
20260504081717 51 84 2.0 3.0 0.00 0.00 0.00 77 1016.3
20260504081217 51 41 0.0 2.0 0.00 0.00 0.00 76 1016.2
20260504080717 51 135 0.0 2.0 0.00 0.00 0.00 76 1016.6
20260504080216 51 51 0.0 3.0 0.00 0.00 0.00 75 1016.4
20260504070217 53 60 0.0 2.0 0.00 0.00 0.00 69 1016.8
20260504050717 55 90 1.0 5.0 0.00 0.00 0.00 65 1016.8
20260504050215 55 103 3.0 5.0 0.00 0.00 0.00 66 1017.0
20260504045716 55 121 1.0 4.0 0.00 0.00 0.00 65 1017.0
20260504045217 55 105 0.0 6.0 0.00 0.00 0.00 65 1017.2
20260504044944 55 103 3.0 8.0 0.00 0.00 0.00 64 1017.0
20260504044217 56 91 0.0 8.0 0.00 0.00 0.00 64 1016.9
20260504043942 56 60 0.0 9.0 0.00 0.00 0.00 64 1017.2
20260504043216 56 103 3.0 9.0 0.00 0.00 0.00 64 1016.9
20260504042716 56 38 4.0 7.0 0.00 0.00 0.00 63 1017.2
20260504042216 56 87 4.0 7.0 0.00 0.00 0.00 64 1017.2
20260504041717 56 330 2.0 5.0 0.00 0.00 0.00 64 1017.1
20260504041445 56 60 4.0 5.0 0.00 0.00 0.00 63 1017.1
20260504040944 56 84 1.0 2.0 0.00 0.00 0.00 63 1017.4
20260504040609 56 90 0.0 2.0 0.00 0.00 0.00 64 1017.1
20260504035716 56 76 0.0 2.0 0.00 0.00 0.00 63 1017.4
20260504035215 56 76 1.0 2.0 0.00 0.00 0.00 63 1017.1
20260504034715 56 69 0.0 2.0 0.00 0.00 0.00 63 1017.1
20260504034217 56 90 0.0 2.0 0.00 0.00 0.00 63 1017.3
20260504033716 56 69 0.0 2.0 0.00 0.00 0.00 63 1017.2
20260504033216 57 69 0.0 2.0 0.00 0.00 0.00 63 1017.2
20260504033020 57 69 0.0 2.0 0.00 0.00 0.00 62 1017.3
20260504032216 57 75 0.0 2.0 0.00 0.00 0.00 62 1017.2
20260504031717 57 94 0.0 2.0 0.00 0.00 0.00 62 1017.3
20260504031217 57 67 0.0 2.0 0.00 0.00 0.00 63 1017.1
20260504030720 57 76 0.0 2.0 0.00 0.00 0.00 62 1017.2
20260504030217 57 81 0.0 2.0 0.00 0.00 0.00 62 1017.4
20260504025715 57 69 1.0 2.0 0.00 0.00 0.00 62 1017.2
20260504025216 57 69 1.0 2.0 0.00 0.00 0.00 62 1017.3
20260504024716 57 68 0.0 2.0 0.00 0.00 0.00 62 1017.2
20260504024207 57 81 0.0 2.0 0.00 0.00 0.00 62 1017.1
20260504023706 57 93 2.0 2.0 0.00 0.00 0.00 60 1017.0
20260504023203 58 84 1.0 3.0 0.00 0.00 0.00 61 1017.1
20260504022929 58 90 0.0 3.0 0.00 0.00 0.00 60 1016.9
20260504022203 58 90 1.0 2.0 0.00 0.00 0.00 59 1016.6
20260504021703 58 84 2.0 2.0 0.00 0.00 0.00 59 1016.9
20260504021205 58 68 1.0 2.0 0.00 0.00 0.00 59 1016.7
20260504020704 58 102 2.0 2.0 0.00 0.00 0.00 58 1016.6
20260504020204 58 87 2.0 2.0 0.00 0.00 0.00 58 1016.5
20260504015705 58 73 2.0 3.0 0.00 0.00 0.00 58 1016.5
20260504015203 59 84 0.0 3.0 0.00 0.00 0.00 57 1016.7
20260504014703 58 90 2.0 2.0 0.00 0.00 0.00 58 1016.7